Content
SEND FEEDBACK

Daily
Averages
Monthly
Summary
United States of America

RAPID CITY, SOUTH DAKOTA


Home > North America > United States > South Dakota
Elevation: 3162 feet     Latitude: 44 03N     Longitude: 103 04W

WEATHER
 
SELECT A DAY
Number of Records: 200,148;   Date Range: 1/1/95 - 7/7/14
 
SHARE

PRINT THIS DATA

[ ← Previous Day ]
WEATHER ALMANAC - FEBRUARY 8, 2013
[ Next Day → ]
[ °C ]   °F
Weather ElementAverageHighLow
Temperature33.4 °F44.1 °F (11:52 am)24.1 °F (11:52 pm)
Dewpoint20.6 °F23 °F (10:52 pm)17.1 °F (6:52 am)
Humidity61.3 %88 % (11:52 pm)40 % (11:52 am)
Barometer29.92 in29.98 in (1:52 am)29.88 in (12:52 pm)
Wind Speed9.3 mph16.1 mph (2:52 pm)
Weather ElementAverage
Visibility10 mi
Wind DirectionSSE (172.6 °)

Weather ElementTotal
Precipitation---
Heating Degree Days30.9 (Base 65)
Averaged from 23 records on February 8, 2013
WEATHER CONDITIONS BREAKOUT
WIND DIRECTION BREAKOUT
WEATHER BY HOUR - FEBRUARY 8, 2013
[ °C ]   °F
Local TimeTemperatureDewpointHumidityBarometerVisibilityWind DirectionWind SpeedGust SpeedPrecipitationEventsConditions
1:52 AM28.0 °F19.9 °F72 %29.98 in10.0 miSSE (150°)9.2 mphClear
2:52 AM30.0 °F19.9 °F66 %29.95 in10.0 miSE (140°)11.5 mphClear
3:52 AM30.0 °F21.0 °F69 %29.94 in10.0 miSSE (160°)11.5 mphClear
4:52 AM30.0 °F19.9 °F66 %29.94 in10.0 miEast (80°)6.9 mphClear
5:52 AM33.1 °F19.0 °F56 %29.94 in10.0 miSouth (190°)9.2 mphClear
6:52 AM34.0 °F17.1 °F50 %29.95 in10.0 miSSE (160°)9.2 mphClear
7:52 AM30.9 °F19.0 °F61 %29.96 in10.0 miSSE (150°)6.9 mphClear
8:52 AM35.1 °F21.9 °F59 %29.95 in10.0 miCalmClear
9:52 AM41.0 °F21.0 °F45 %29.93 in10.0 miENE (70°)6.9 mphClear
10:52 AM42.1 °F21.9 °F45 %29.93 in10.0 miNE (40°)10.4 mphClear
11:52 AM44.1 °F21.0 °F40 %29.89 in10.0 miNNE (30°)12.7 mphClear
12:52 PM43.0 °F19.9 °F40 %29.88 in10.0 miNNE (30°)13.8 mphClear
1:52 PM41.0 °F21.9 °F47 %29.88 in10.0 miNorth (10°)13.8 mphClear
2:52 PM41.0 °F21.9 °F47 %29.88 in10.0 miNorth (360°)16.1 mphClear
3:52 PM42.1 °F21.0 °F43 %29.88 in10.0 miNorth (10°)11.5 mphClear
4:52 PM37.0 °F21.0 °F52 %29.88 in10.0 miNorth (10°)8.1 mphClear
5:52 PM30.0 °F19.9 °F66 %29.89 in10.0 miNorth (360°)6.9 mphClear
6:52 PM25.0 °F19.0 °F78 %29.92 in10.0 miNNW (340°)8.1 mphClear
7:52 PM25.0 °F19.9 °F81 %29.92 in10.0 miNNW (330°)8.1 mphClear
8:52 PM28.0 °F21.9 °F78 %29.90 in10.0 miNW (320°)8.1 mphClear
9:52 PM26.1 °F21.0 °F81 %29.89 in10.0 miNorth (350°)8.1 mphClear
10:52 PM28.0 °F23.0 °F81 %29.88 in10.0 miNorth (350°)9.2 mphClear
11:52 PM24.1 °F21.0 °F88 %29.89 in10.0 miNNW (330°)6.9 mphClear
Hourly data recorded from KRAP, located miles away from Rapid City, South Dakota







STORIES FROM OUR PARTNERS